{"data":{"norad_id":53616,"epoch":"2026-09-20T22:13:51.207168Z","epoch_age_seconds":44642,"freshness":"FRESH","line1":"1 53616U 22104AE  26263.92628712  .00000515  00000+0  26384-4 0  9993","line2":"2 53616  53.1616  59.5099 0001151  79.5012 280.6121 15.34394122225467","mean_motion":15.34394122,"eccentricity":0.0001151,"inclination_deg":53.1616,"raan_deg":59.5099,"arg_perigee_deg":79.5012,"mean_anomaly_deg":280.6121,"bstar":2.6384e-5,"rev_number":22546,"period_min":93.848117595956,"perigee_km":461.93332819508,"apogee_km":463.50809364014,"semimajor_km":6840.8577109176,"source":"CELESTRAK","updated_at":"2026-09-21T09:00:32.940485Z"}}